[[{"header":{"parameterUnit":"m.s-1","parameterCategory":1,"la1":30.2992,"la2":30.254,"lo1":-89.0895,"lo2":-89.0443,"dy":0.0025,"dx":0.0025,"nx":19,"ny":19,"refTime":"2026-04-09T09:00:00:Z","depth":0,"parameterNumber":2,"parameterNumberName":"U-component_of_WINDS"},"data":[0,0,0,-5.3378,-5.338,-5.3487,-5.3487,-5.3652,-5.3654,0,0,0,0,0,0,0,0,0,0,0,-5.3363,-5.3365,-5.3377,-5.3381,-5.3487,-5.3487,-5.3652,-5.3654,0,0,0,0,0,0,0,0,0,0,0,-5.3362,-5.3364,-5.3367,-5.3381,-5.3487,-5.3487,-5.3652,-5.3561,0,0,0,0,0,0,0,0,0,0,-5.3453,-5.3456,-5.3364,-5.3367,-5.3382,-5.3487,-5.3487,-5.3556,-5.3567,-5.3617,0,-5.3665,0,-5.3662,-5.3667,-5.3668,0,0,0,-5.3368,-5.3447,-5.3461,-5.3367,-5.3383,-5.3487,-5.3435,-5.3562,-5.3574,-5.3631,-5.3667,-5.3672,-5.3665,-5.3668,-5.3669,-5.3998,-5.4,0,0,-5.3362,-5.3391,-5.3453,-5.3469,-5.3454,-5.3432,-5.3439,-5.3569,-5.361,-5.3667,-5.3676,-5.3668,-5.367,-5.3671,-5.3996,-5.3999,0,0,0,-5.3354,-5.3388,-5.3397,-5.3463,-5.348,-5.3435,-5.3443,-5.3604,-5.3605,-5.3677,-5.367,-5.3671,-5.3673,-5.3994,-5.3997,-5.413,0,0,0,-5.335,-5.3383,-5.3395,-5.3415,-5.3478,-5.3543,-5.3477,-5.3596,-5.361,-5.3669,-5.3671,-5.3675,-5.3991,-5.3995,-5.4121,-5.4187,0,0,0,-5.335,-5.3383,-5.3404,-5.3416,-5.3463,-5.354,-5.3548,-5.3598,-5.3606,-5.3668,-5.3675,-5.399,-5.3995,-5.4113,-5.4174,-5.4281,0,0,0,-5.336,-5.352,-5.3407,-5.3584,-5.3462,-5.3622,-5.3547,-5.3665,-5.3734,-5.3672,-5.3991,-5.3997,-5.411,-5.4166,-5.4273,-5.4376,-5.4422,0,0,-5.3579,-5.3548,-5.365,-5.3551,-5.3739,-5.3604,-5.3812,-5.3847,-5.3827,-5.3942,-5.395,-5.4124,-5.4173,-5.428,-5.4672,-5.4709,0,0,0,-5.3729,-5.3802,-5.3846,-5.3913,-5.3945,-5.3977,-5.3978,-5.3992,-5.4089,-5.3892,-5.4191,-5.422,-5.4281,-5.4329,-5.436,-5.4411,-5.402,-5.402,-5.4019,-5.4079,-5.4045,-5.4211,-5.419,-5.4257,-5.4258,-5.4308,-5.4327,-5.4272,-5.4344,-5.4377,-5.462,-5.4677,-5.47,-5.4753,-5.4431,-5.4431,-5.4432,-5.4432,-5.4395,-5.4493,-5.4419,-5.4553,-5.4517,-5.463,-5.4639,-5.4597,-5.4697,-5.4591,-5.4644,-5.453,-5.4741,-5.4786,-5.4442,-5.444,-5.4439,-5.4438,-5.4437,-5.4619,-5.466,-5.4674,-5.4769,-5.4847,-5.4821,-5.4922,-5.4885,-5.4852,-5.4904,-5.4935,-5.4933,-5.4925,-5.4922,-5.4923,-5.4923,-5.4924,-5.4925,-5.4925,-5.4844,-5.4856,-5.4945,-5.4994,-5.5033,-5.5081,-5.5085,-5.5123,-5.5156,-5.5122,-5.5122,-5.5061,-5.4769,-5.4695,-5.4938,-5.4936,-5.4934,-5.4933,-5.4932,-5.5174,-5.5094,-5.523,-5.527,-5.5326,-5.5406,-5.536,-5.5441,-5.5467,-5.5518,-5.5447,-5.5238,-5.5203,-5.5178,-5.5117,-5.5454,-5.5454,-5.5454,-5.5454,-5.5361,-5.5341,-5.5473,-5.5539,-5.56,-5.5573,-5.573,-5.5736,-5.5731,-5.5745,-5.5692,-5.5609,-5.5585,-5.5564,-5.5531,-5.5473,-5.5893,-5.5894,-5.5894,-5.5561,-5.5546,-5.5685,-5.5679,-5.572,-5.5758,-5.5904,-5.5984,-5.5961,-5.5911,-5.5756,-5.5737,-5.5602,-5.556,-5.5503,-5.5452,-5.5345,0,0]},{"header":{"parameterUnit":"m.s-1","parameterCategory":1,"la1":30.2992,"la2":30.254,"lo1":-89.0895,"lo2":-89.0443,"dy":0.0025,"dx":0.0025,"nx":19,"ny":19,"refTime":"2026-04-09T09:00:00:Z","depth":0,"parameterNumber":3,"parameterNumberName":"V-component_of_WINDS"},"data":[0,0,0,2.7484,2.7483,2.7482,2.7482,2.7453,2.7453,0,0,0,0,0,0,0,0,0,0,0,2.7471,2.7471,2.7484,2.7483,2.7482,2.7482,2.7453,2.7453,0,0,0,0,0,0,0,0,0,0,0,2.7472,2.7471,2.747,2.7483,2.7482,2.7482,2.7453,2.7463,0,0,0,0,0,0,0,0,0,0,2.7469,2.7446,2.7471,2.747,2.7483,2.7482,2.7482,2.7464,2.7463,2.7444,0,2.7426,0,2.7439,2.7449,2.7449,0,0,0,2.7492,2.7447,2.7459,2.747,2.7483,2.7482,2.7485,2.7464,2.7462,2.7442,2.7426,2.7426,2.7439,2.7449,2.7449,2.7319,2.7318,0,0,2.7492,2.7463,2.746,2.7457,2.7459,2.7485,2.7485,2.7463,2.7443,2.7426,2.7425,2.7438,2.7449,2.7448,2.732,2.7319,0,0,0,2.7487,2.7462,2.7476,2.7457,2.7459,2.7485,2.7484,2.7444,2.7451,2.7425,2.7438,2.7449,2.7448,2.7322,2.732,2.7242,0,0,0,2.7487,2.7459,2.7475,2.7457,2.7459,2.7452,2.7465,2.7452,2.7451,2.7438,2.7448,2.7447,2.7323,2.7321,2.7246,2.7208,0,0,0,2.7476,2.7458,2.7454,2.7455,2.7454,2.7453,2.7459,2.7452,2.7458,2.7449,2.7447,2.7324,2.7321,2.7251,2.7215,2.7165,0,0,0,2.7454,2.7382,2.7452,2.7378,2.7454,2.7407,2.746,2.7425,2.7409,2.7448,2.7323,2.732,2.7252,2.7219,2.7169,2.7116,2.7092,0,0,2.7347,2.7369,2.7327,2.739,2.7323,2.7409,2.733,2.7341,2.7365,2.7332,2.733,2.7245,2.7215,2.7166,2.6972,2.6952,0,0,0,2.7283,2.7253,2.7242,2.7227,2.7236,2.724,2.7268,2.7272,2.7247,2.7344,2.7216,2.7199,2.7171,2.7146,2.713,2.7107,2.7309,2.7309,2.7309,2.7086,2.7126,2.7059,2.7098,2.7083,2.7114,2.7104,2.7115,2.7156,2.7125,2.7114,2.6992,2.6963,2.6951,2.6926,2.7092,2.7091,2.7091,2.7091,2.6932,2.6894,2.6955,2.6912,2.6953,2.6916,2.6943,2.6974,2.6944,2.7003,2.698,2.7038,2.6928,2.6909,2.7085,2.7086,2.7087,2.7088,2.7088,2.6805,2.6793,2.6804,2.6788,2.6771,2.6813,2.6782,2.6821,2.6856,2.6833,2.6825,2.6827,2.6831,2.6828,2.6828,2.6827,2.6827,2.6826,2.6826,2.6667,2.6682,2.6653,2.666,2.6657,2.6657,2.6689,2.6686,2.6691,2.6721,2.6721,2.6763,2.6912,2.6947,2.682,2.6821,2.6822,2.6822,2.6823,2.6491,2.6538,2.6493,2.649,2.6502,2.6482,2.6534,2.6524,2.6527,2.651,2.656,2.6665,2.6687,2.6701,2.6729,2.6554,2.6554,2.6554,2.6553,2.6381,2.6399,2.6363,2.6356,2.6353,2.6396,2.6342,2.6367,2.6399,2.6403,2.6435,2.6478,2.649,2.6506,2.6523,2.6551,2.6333,2.6333,2.6333,2.6274,2.6294,2.6241,2.6278,2.6291,2.63,2.625,2.6237,2.6284,2.6325,2.6407,2.6416,2.6486,2.6507,2.6544,2.6571,2.6622,0,0]}]]